Total_Precipitation_Accumulation
0.11 0.42 0.91 2.31 5.20 2.81 2.85 1.89 2.03 1.18 0.47 0.28 0.14 0.24 0.48 0.75 1.65 2.80 0.45 0.43 0.20 0.26 0.37 1.41 2.14 1.73 1.58 1.29 1.23 0.97 0.85 0.70 0.83 0.76 0.78 0.80 0.60 0.56 0.75 0.84 0.95 1.07 1.05 1.03 0.89 0.90 0.80 0.63 0.63
0.30 1.09 1.83 5.75 5.13 3.70 4.03 2.22 2.29 1.26 0.57 0.44 0.25 0.40 0.62 0.58 0.18 0.08 0.18 0.27 0.08 0.08 0.36 0.56 1.77 1.71 1.33 0.99 1.05 0.88 0.99 0.98 1.22 0.96 0.88 0.76 0.97 0.86 0.86 0.80 1.09 1.15 1.15 1.10 0.91 0.75 0.72 0.80 1.02
0.61 1.66 4.56 7.23 3.50 3.05 2.49 2.80 3.06 1.28 0.59 0.40 0.44 0.56 0.51 0.33 0.10 0.10 0.14 0.13 0.10 0.14 0.31 0.29 0.94 1.07 1.04 1.00 1.05 0.86 0.81 0.90 1.12 1.25 1.08 1.00 0.99 0.96 0.82 1.03 0.94 1.15 1.23 1.06 0.97 0.73 0.82 0.93 1.45
0.63 3.89 5.71 4.80 4.23 2.91 1.55 1.62 1.59 2.08 1.15 0.82 0.50 0.48 0.27 0.24 0.03 0.06 0.16 0.20 0.18 0.45 0.33 0.41 0.58 0.74 0.91 1.03 0.72 0.78 0.85 0.90 1.27 1.39 1.01 1.02 1.09 1.14 1.39 1.51 1.17 1.09 0.99 0.84 0.53 0.57 0.72 0.81 1.08
0.86 4.21 6.82 5.83 3.80 1.89 1.26 1.47 2.82 3.65 2.08 1.51 0.55 0.61 0.24 0.16 0.05 0.03 0.14 0.24 0.22 0.78 0.36 0.73 1.08 1.03 1.01 1.05 1.04 1.05 1.03 0.96 1.31 1.09 1.17 1.07 1.04 1.03 1.59 1.25 1.15 0.89 0.52 0.46 0.35 0.36 0.66 0.81 1.27
1.77 3.69 5.38 4.85 2.37 1.17 1.58 1.86 2.20 2.08 1.40 0.62 0.45 0.35 0.31 0.13 0.07 0.09 0.11 0.21 0.45 0.49 0.32 1.09 1.09 1.45 1.31 1.05 1.22 1.16 1.13 1.26 1.26 1.12 1.48 1.36 1.72 1.72 1.46 1.02 0.59 0.36 0.23 0.24 0.21 0.55 0.84 1.14 1.07
1.79 4.84 4.60 3.02 2.46 2.47 1.60 1.53 1.48 1.59 1.04 0.57 0.43 0.55 0.46 0.16 0.13 0.10 0.20 0.29 0.32 0.43 0.65 0.90 0.99 0.75 1.05 1.31 1.41 1.56 1.14 1.32 1.25 1.20 1.38 1.24 1.02 1.12 1.02 0.64 0.38 0.22 0.37 0.38 0.47 0.51 0.70 0.95 0.69
1.06 3.60 5.41 3.15 1.38 3.10 1.59 1.23 1.35 1.13 0.79 0.32 0.27 0.25 0.26 0.08 0.20 0.31 0.38 0.47 0.69 1.14 1.57 0.49 0.92 1.14 0.93 1.17 1.43 1.27 1.19 1.31 1.31 1.22 1.42 1.25 0.72 0.82 0.82 0.78 0.62 0.34 0.37 0.45 0.55 0.61 0.68 0.84 0.75
1.58 5.68 4.44 2.47 1.02 2.58 1.43 1.29 1.10 0.86 0.35 0.33 0.31 0.11 0.02 0.01 0.07 0.12 0.24 0.59 1.20 1.18 1.62 0.81 0.45 1.28 1.87 1.90 1.29 1.55 1.66 1.50 1.57 1.37 1.66 2.40 1.40 1.82 1.80 1.21 0.82 0.49 0.63 0.69 0.77 0.70 0.87 0.91 0.57
2.43 4.58 2.72 1.24 0.55 1.10 2.06 1.41 1.17 0.95 0.75 0.51 0.57 0.21 0.02 0.01 0.01 0.08 0.16 0.34 0.67 0.65 1.74 1.45 0.64 0.54 0.79 0.77 1.61 2.21 1.68 1.58 1.39 1.70 2.08 2.41 1.61 1.47 0.67 0.71 0.75 0.78 0.95 0.91 1.34 1.09 1.17 1.41 1.58
2.12 3.79 1.93 0.71 0.47 0.82 1.34 1.07 0.74 1.05 1.00 0.45 0.29 0.10 0.01 0.00 0.01 0.10 0.14 0.12 0.27 0.27 0.33 0.72 1.30 0.48 0.49 1.03 0.57 1.00 0.87 0.70 0.98 1.08 1.44 2.16 1.90 1.84 0.84 0.83 1.34 1.30 1.05 1.12 1.72 1.49 2.19 2.19 2.09
0.97 0.94 1.56 1.29 0.81 0.47 1.02 2.21 0.72 1.71 1.80 0.50 0.30 0.05 0.00 0.01 0.02 0.04 0.03 0.14 0.21 0.13 0.24 0.32 0.43 0.51 0.78 0.53 0.58 0.58 0.42 0.47 0.77 0.82 0.63 1.08 1.56 1.17 1.31 1.33 1.39 1.29 1.06 1.65 1.22 1.65 1.25 1.43 1.90
0.62 0.83 1.00 1.15 0.47 0.55 0.71 1.19 0.90 1.14 0.89 0.45 0.29 0.05 0.01 0.01 0.04 0.08 0.10 0.13 0.12 0.08 0.19 0.30 0.32 0.48 0.63 0.62 0.36 0.51 0.24 0.32 0.46 0.63 0.65 0.98 1.14 1.34 1.22 1.06 1.38 1.09 0.86 1.63 1.01 1.60 1.73 1.03 0.92
0.47 0.72 1.17 1.57 1.15 0.82 0.77 0.96 0.67 0.83 0.69 0.45 0.31 0.04 0.02 0.01 0.04 0.04 0.08 0.09 0.10 0.11 0.11 0.21 0.40 0.30 0.46 0.77 0.50 0.32 0.19 0.24 0.47 0.66 0.78 0.93 0.66 1.01 0.96 1.67 1.83 1.56 1.05 1.23 1.63 1.60 2.16 1.53 1.20
0.32 0.66 1.24 1.78 2.06 1.87 1.39 2.82 1.40 0.78 0.62 0.45 0.24 0.09 0.05 0.09 0.12 0.14 0.10 0.10 0.12 0.16 0.19 0.12 0.18 0.34 0.28 0.35 0.31 0.22 0.23 0.39 0.35 0.49 0.84 0.88 0.80 0.99 1.02 1.19 1.31 1.34 1.22 1.30 1.29 0.99 2.75 1.76 0.97
0.53 0.71 2.28 2.75 2.19 2.59 1.90 4.23 2.65 1.55 1.83 0.53 0.47 0.45 0.17 0.78 1.22 0.61 0.33 0.39 0.54 0.50 0.58 0.23 0.14 0.18 0.22 0.15 0.11 0.12 0.12 0.43 0.17 0.35 0.36 0.59 0.86 0.74 0.89 0.95 1.30 1.36 1.69 1.26 1.51 1.56 1.76 1.52 0.88
0.72 0.86 1.37 3.02 2.78 3.04 2.32 3.96 3.03 1.42 1.17 0.86 0.35 0.89 0.30 0.87 1.57 0.66 0.48 0.49 0.62 0.58 0.49 0.36 0.35 0.16 0.15 0.06 0.12 0.19 0.16 0.26 0.26 0.31 0.36 0.38 0.45 0.54 1.14 1.13 1.05 0.90 0.94 0.97 1.04 1.41 1.18 0.99 1.13
0.45 0.99 1.20 1.93 3.22 3.00 2.57 2.97 2.88 1.69 1.35 1.12 0.48 0.53 0.48 0.49 0.72 0.49 0.29 0.58 1.17 0.42 0.24 0.31 0.27 0.42 0.17 0.37 0.33 0.27 0.22 0.26 0.48 0.31 0.52 0.68 0.64 0.63 0.92 0.89 1.19 0.66 0.90 1.43 1.64 0.71 0.41 0.66 0.84
0.40 0.73 1.42 1.66 2.20 3.36 2.92 2.24 2.73 1.36 0.94 1.31 0.88 0.62 0.74 0.74 0.54 0.35 0.28 0.27 0.45 0.54 0.19 0.28 0.20 0.16 0.21 0.25 0.24 0.30 0.36 0.16 0.36 0.46 0.54 0.98 0.60 0.58 0.65 0.77 0.92 1.14 1.08 1.66 0.81 0.51 0.53 0.40 0.66
0.11 0.37 1.39 1.63 2.00 1.93 2.71 2.05 2.16 2.11 1.05 0.85 0.94 0.83 1.04 1.03 0.67 0.45 0.31 0.35 1.14 0.89 0.24 0.22 0.20 0.27 0.24 0.14 0.16 0.18 0.19 0.18 0.34 0.48 0.67 0.68 0.66 0.70 0.53 0.85 0.70 1.15 1.27 0.73 0.78 0.82 0.62 1.16 0.42
0.13 0.14 0.88 1.94 1.85 1.90 1.69 2.53 1.98 1.99 1.99 1.11 1.08 0.70 0.59 0.52 1.22 0.57 0.25 0.33 0.58 0.74 0.23 0.25 0.28 0.29 0.22 0.33 0.31 0.77 0.96 1.15 1.32 0.97 0.78 0.80 1.49 0.68 0.56 0.72 1.11 1.36 1.31 1.07 0.88 0.47 0.67 0.94 0.45
0.16 0.16 0.41 1.18 1.44 1.59 1.39 1.59 1.87 1.58 1.80 2.11 1.39 0.53 0.40 0.22 0.44 0.55 0.19 0.18 0.20 0.23 0.24 0.40 0.49 0.43 0.31 0.32 0.54 0.89 1.16 1.11 0.95 1.14 1.67 0.70 1.13 0.54 0.45 0.67 1.09 1.15 1.68 1.65 1.12 0.63 0.74 1.11 1.59
0.05 0.07 0.25 0.66 0.98 0.94 0.80 0.86 1.19 1.77 1.69 1.99 1.63 0.62 0.49 0.34 0.27 0.27 0.34 0.53 0.47 0.40 0.37 0.44 0.45 0.68 0.61 0.38 1.12 0.88 0.92 1.11 1.20 1.60 2.11 1.23 0.91 0.48 0.58 0.87 1.16 1.03 0.90 1.00 1.17 1.19 1.43 1.00 1.06
0.03 0.07 0.10 0.33 1.00 0.60 0.26 0.37 0.94 0.94 1.11 1.41 1.37 1.11 0.52 0.24 0.29 0.30 0.35 0.58 0.42 0.40 0.28 0.44 0.39 0.57 0.74 0.63 0.74 0.89 1.06 1.23 1.78 1.90 1.94 0.89 0.70 0.70 0.84 1.12 1.36 1.56 1.35 1.65 1.47 1.30 1.06 0.60 0.64
0.04 0.05 0.18 0.25 0.53 0.44 0.14 0.18 0.53 0.28 0.87 1.04 1.04 1.26 0.62 0.40 0.43 0.40 0.34 0.38 0.54 0.82 0.32 0.15 0.29 0.60 0.93 0.94 0.66 0.73 0.95 1.11 1.45 1.96 1.21 1.26 1.28 1.37 1.06 1.29 1.73 1.58 1.44 1.65 1.83 1.64 1.14 0.96 0.51
0.04 0.03 0.05 0.10 0.13 0.25 0.31 0.45 0.30 0.23 0.38 0.43 0.51 0.53 0.90 0.61 0.58 0.66 0.63 0.76 0.69 0.40 0.36 0.50 0.64 1.09 0.74 0.89 0.76 0.79 0.73 0.98 1.22 1.37 1.57 1.51 1.35 1.47 0.83 0.77 1.06 1.04 1.02 0.90 1.25 1.07 0.76 0.49 0.52
0.03 0.02 0.05 0.05 0.09 0.17 0.48 0.75 0.31 0.39 0.39 0.15 0.24 0.33 0.48 0.76 1.00 0.84 0.65 0.81 1.31 1.09 0.97 0.90 1.16 0.67 0.39 0.42 0.58 0.52 0.63 0.69 0.83 1.37 1.78 1.56 1.99 1.95 1.65 0.83 1.04 0.98 0.78 0.68 0.91 0.60 0.60 1.13 1.00
0.00 0.06 0.08 0.08 0.09 0.12 0.32 0.95 0.89 0.55 0.36 0.28 0.28 0.31 0.29 0.75 1.69 1.96 1.52 0.85 1.08 1.65 1.60 1.69 1.69 1.21 0.69 0.28 0.38 0.47 0.43 0.40 0.38 0.66 0.86 1.13 1.44 2.64 2.40 1.78 1.47 1.26 0.89 0.96 1.15 0.65 0.75 1.15 0.78
0.01 0.02 0.05 0.05 0.04 0.08 0.20 0.63 1.23 1.08 0.23 0.16 0.23 0.32 0.36 0.72 1.48 2.80 2.82 2.39 1.52 2.09 1.69 2.77 1.98 1.22 0.90 0.80 0.73 0.77 0.49 0.37 0.41 0.44 0.58 0.73 0.97 1.25 1.39 2.33 1.75 1.72 1.48 1.46 1.85 1.68 1.80 1.62 1.16
0.00 0.01 0.03 0.04 0.13 0.08 0.05 0.29 0.37 0.47 0.25 0.39 0.41 0.41 0.79 1.10 1.07 1.70 2.48 2.63 2.16 2.02 1.62 1.75 2.28 1.58 1.39 1.42 1.58 1.18 1.13 1.00 0.76 0.82 0.70 0.88 1.08 1.04 1.13 1.42 1.75 1.82 1.43 1.95 1.77 1.53 1.48 1.42 1.10